QPF
0.00 0.00 0.05 0.09 0.06 0.08 0.00 0.00 0.00 0.00 0.00 0.00 0.00 0.00 0.00 0.03 0.02 0.00 0.00 0.00 0.00 0.00 0.00 0.00 0.00 0.00 0.00 0.00 0.00 0.00 0.00 0.00 0.00 0.04 0.07 0.07 0.10 0.08 0.08 0.07 0.14 0.06 0.03 0.02 0.10 0.10 0.07 0.04 0.01
0.01 0.03 0.03 0.12 0.14 0.02 0.00 0.00 0.00 0.00 0.00 0.00 0.00 0.00 0.00 0.00 0.00 0.00 0.00 0.00 0.00 0.00 0.00 0.00 0.00 0.01 0.01 0.00 0.00 0.00 0.00 0.00 0.00 0.02 0.05 0.05 0.06 0.07 0.05 0.04 0.10 0.05 0.01 0.00 0.00 0.01 0.00 0.00 0.00
0.01 0.01 0.04 0.14 0.07 0.00 0.00 0.00 0.00 0.00 0.01 0.00 0.00 0.00 0.00 0.00 0.00 0.00 0.00 0.00 0.00 0.00 0.00 0.00 0.00 0.01 0.00 0.00 0.00 0.00 0.00 0.02 0.01 0.00 0.04 0.06 0.02 0.02 0.02 0.01 0.00 0.00 0.00 0.00 0.00 0.00 0.00 0.00 0.00
0.05 0.12 0.15 0.11 0.01 0.00 0.00 0.00 0.00 0.00 0.00 0.00 0.00 0.00 0.00 0.00 0.00 0.00 0.00 0.00 0.00 0.00 0.00 0.00 0.00 0.00 0.00 0.00 0.00 0.00 0.00 0.02 0.02 0.02 0.01 0.01 0.00 0.01 0.01 0.00 0.00 0.01 0.01 0.00 0.00 0.00 0.00 0.00 0.00
0.07 0.23 0.24 0.08 0.01 0.01 0.00 0.00 0.00 0.00 0.00 0.00 0.00 0.00 0.00 0.00 0.00 0.00 0.00 0.00 0.00 0.00 0.00 0.00 0.00 0.00 0.00 0.00 0.00 0.00 0.00 0.00 0.00 0.00 0.00 0.00 0.00 0.00 0.01 0.01 0.02 0.01 0.01 0.00 0.00 0.00 0.00 0.00 0.00
0.21 0.08 0.07 0.07 0.00 0.00 0.00 0.01 0.00 0.00 0.00 0.00 0.00 0.00 0.00 0.00 0.00 0.00 0.00 0.00 0.00 0.00 0.00 0.00 0.00 0.00 0.00 0.00 0.00 0.00 0.00 0.00 0.00 0.00 0.00 0.00 0.00 0.00 0.01 0.01 0.00 0.00 0.00 0.00 0.00 0.00 0.00 0.00 0.00
0.28 0.07 0.12 0.02 0.00 0.01 0.00 0.00 0.00 0.00 0.00 0.00 0.00 0.00 0.00 0.00 0.00 0.00 0.00 0.00 0.00 0.00 0.00 0.00 0.00 0.00 0.00 0.00 0.00 0.00 0.00 0.00 0.00 0.00 0.00 0.00 0.00 0.00 0.00 0.00 0.00 0.00 0.00 0.00 0.00 0.00 0.00 0.00 0.00
0.20 0.05 0.11 0.10 0.02 0.00 0.00 0.00 0.00 0.00 0.00 0.00 0.00 0.00 0.00 0.00 0.00 0.00 0.00 0.00 0.00 0.00 0.00 0.00 0.00 0.00 0.00 0.00 0.00 0.00 0.00 0.00 0.00 0.00 0.00 0.00 0.00 0.00 0.00 0.00 0.00 0.00 0.00 0.00 0.00 0.00 0.00 0.00 0.00
0.10 0.11 0.06 0.16 0.03 0.00 0.00 0.00 0.00 0.00 0.00 0.00 0.00 0.00 0.00 0.00 0.00 0.00 0.00 0.00 0.00 0.00 0.00 0.00 0.00 0.00 0.00 0.00 0.00 0.00 0.00 0.00 0.00 0.00 0.00 0.00 0.00 0.00 0.00 0.00 0.00 0.00 0.00 0.00 0.00 0.00 0.00 0.00 0.00
0.13 0.11 0.02 0.08 0.04 0.01 0.02 0.00 0.00 0.00 0.00 0.00 0.00 0.00 0.00 0.00 0.00 0.00 0.00 0.00 0.00 0.00 0.00 0.00 0.00 0.00 0.00 0.00 0.00 0.00 0.00 0.00 0.00 0.00 0.00 0.00 0.00 0.00 0.00 0.00 0.00 0.00 0.00 0.00 0.00 0.00 0.00 0.00 0.00
0.10 0.07 0.07 0.16 0.09 0.02 0.00 0.00 0.00 0.00 0.00 0.00 0.00 0.00 0.00 0.00 0.00 0.00 0.00 0.00 0.00 0.00 0.00 0.00 0.00 0.00 0.00 0.00 0.00 0.00 0.00 0.05 0.00 0.00 0.00 0.00 0.00 0.00 0.00 0.00 0.00 0.00 0.00 0.00 0.00 0.00 0.00 0.00 0.00
0.03 0.06 0.09 0.11 0.05 0.01 0.00 0.00 0.00 0.00 0.00 0.00 0.00 0.00 0.00 0.00 0.00 0.00 0.00 0.00 0.00 0.00 0.00 0.00 0.00 0.00 0.00 0.02 0.06 0.17 0.15 0.08 0.03 0.02 0.01 0.01 0.00 0.00 0.00 0.00 0.00 0.00 0.00 0.00 0.00 0.00 0.00 0.00 0.00
0.00 0.01 0.04 0.06 0.04 0.00 0.00 0.01 0.01 0.00 0.00 0.00 0.00 0.00 0.00 0.00 0.00 0.00 0.00 0.00 0.00 0.00 0.00 0.00 0.00 0.00 0.03 0.02 0.05 0.11 0.06 0.11 0.08 0.00 0.01 0.00 0.00 0.00 0.00 0.00 0.00 0.00 0.00 0.00 0.00 0.00 0.00 0.00 0.00
0.00 0.03 0.03 0.02 0.00 0.00 0.00 0.01 0.01 0.00 0.00 0.00 0.00 0.00 0.00 0.00 0.00 0.00 0.00 0.00 0.00 0.00 0.00 0.00 0.00 0.02 0.01 0.00 0.02 0.01 0.04 0.06 0.04 0.00 0.00 0.00 0.00 0.00 0.00 0.00 0.00 0.00 0.00 0.00 0.00 0.00 0.00 0.00 0.00
0.00 0.06 0.11 0.09 0.01 0.05 0.01 0.02 0.01 0.00 0.00 0.00 0.00 0.00 0.00 0.00 0.00 0.00 0.00 0.00 0.00 0.00 0.00 0.00 0.00 0.00 0.00 0.02 0.05 0.02 0.01 0.02 0.00 0.00 0.00 0.00 0.00 0.00 0.00 0.00 0.00 0.00 0.00 0.00 0.00 0.00 0.00 0.00 0.00
0.00 0.01 0.07 0.06 0.06 0.04 0.01 0.02 0.01 0.00 0.00 0.00 0.00 0.00 0.00 0.00 0.00 0.00 0.00 0.00 0.00 0.00 0.00 0.00 0.00 0.00 0.00 0.00 0.03 0.01 0.00 0.00 0.00 0.00 0.00 0.00 0.00 0.00 0.00 0.00 0.00 0.00 0.00 0.00 0.00 0.00 0.00 0.00 0.00
0.00 0.00 0.00 0.04 0.02 0.05 0.01 0.01 0.02 0.00 0.00 0.00 0.00 0.00 0.00 0.00 0.00 0.00 0.00 0.00 0.00 0.00 0.00 0.00 0.00 0.00 0.00 0.00 0.01 0.00 0.00 0.00 0.00 0.00 0.00 0.00 0.00 0.00 0.00 0.00 0.00 0.00 0.00 0.00 0.00 0.00 0.00 0.00 0.00
0.00 0.00 0.00 0.00 0.00 0.04 0.01 0.00 0.00 0.00 0.00 0.00 0.00 0.00 0.00 0.00 0.00 0.00 0.00 0.00 0.00 0.00 0.00 0.00 0.00 0.00 0.00 0.00 0.00 0.00 0.02 0.00 0.00 0.00 0.00 0.00 0.00 0.00 0.00 0.00 0.00 0.00 0.00 0.00 0.00 0.00 0.00 0.00 0.00
0.00 0.00 0.00 0.00 0.00 0.01 0.00 0.00 0.00 0.00 0.00 0.00 0.00 0.00 0.00 0.00 0.00 0.00 0.00 0.00 0.00 0.00 0.00 0.00 0.00 0.00 0.00 0.00 0.00 0.00 0.00 0.00 0.00 0.00 0.00 0.00 0.00 0.00 0.00 0.00 0.00 0.00 0.00 0.00 0.00 0.00 0.00 0.00 0.00
0.00 0.00 0.00 0.00 0.00 0.00 0.00 0.00 0.00 0.00 0.00 0.00 0.00 0.00 0.00 0.00 0.00 0.00 0.00 0.00 0.00 0.00 0.00 0.00 0.00 0.00 0.00 0.00 0.00 0.00 0.00 0.00 0.00 0.00 0.00 0.00 0.00 0.00 0.00 0.00 0.00 0.00 0.00 0.00 0.00 0.00 0.00 0.00 0.00
0.00 0.00 0.00 0.00 0.00 0.00 0.00 0.00 0.00 0.01 0.00 0.00 0.00 0.00 0.00 0.00 0.00 0.00 0.00 0.00 0.00 0.00 0.00 0.00 0.00 0.00 0.00 0.00 0.00 0.00 0.00 0.00 0.00 0.00 0.00 0.00 0.00 0.00 0.00 0.00 0.00 0.00 0.00 0.00 0.00 0.00 0.00 0.00 0.00
0.00 0.00 0.00 0.00 0.00 0.00 0.00 0.00 0.00 0.00 0.00 0.00 0.00 0.00 0.00 0.00 0.00 0.00 0.00 0.00 0.00 0.00 0.00 0.00 0.00 0.00 0.00 0.00 0.00 0.00 0.00 0.00 0.00 0.00 0.00 0.00 0.00 0.00 0.00 0.00 0.00 0.00 0.00 0.00 0.00 0.00 0.00 0.00 0.00
0.00 0.00 0.00 0.00 0.00 0.00 0.00 0.00 0.00 0.00 0.00 0.00 0.00 0.00 0.00 0.00 0.00 0.00 0.00 0.00 0.00 0.00 0.00 0.00 0.00 0.00 0.00 0.00 0.00 0.00 0.00 0.00 0.00 0.00 0.00 0.00 0.00 0.00 0.00 0.00 0.00 0.00 0.00 0.00 0.00 0.00 0.00 0.00 0.00
0.00 0.00 0.00 0.00 0.00 0.00 0.00 0.00 0.00 0.00 0.00 0.00 0.00 0.00 0.00 0.00 0.00 0.00 0.00 0.00 0.00 0.00 0.00 0.00 0.00 0.00 0.00 0.00 0.00 0.00 0.00 0.00 0.00 0.00 0.00 0.00 0.00 0.00 0.00 0.00 0.00 0.00 0.00 0.00 0.00 0.00 0.00 0.00 0.00
0.00 0.00 0.00 0.00 0.00 0.00 0.00 0.00 0.00 0.00 0.00 0.00 0.00 0.00 0.00 0.00 0.00 0.00 0.00 0.00 0.00 0.00 0.00 0.00 0.00 0.00 0.00 0.00 0.00 0.00 0.00 0.00 0.01 0.00 0.00 0.00 0.00 0.00 0.00 0.00 0.00 0.00 0.00 0.00 0.00 0.00 0.00 0.00 0.00
0.00 0.00 0.00 0.00 0.00 0.00 0.00 0.00 0.00 0.00 0.00 0.00 0.00 0.00 0.00 0.00 0.00 0.00 0.00 0.00 0.00 0.00 0.00 0.00 0.00 0.00 0.00 0.00 0.00 0.00 0.00 0.00 0.00 0.00 0.00 0.00 0.00 0.00 0.00 0.00 0.00 0.00 0.00 0.00 0.00 0.00 0.00 0.00 0.00
0.00 0.00 0.00 0.00 0.00 0.00 0.00 0.00 0.00 0.00 0.00 0.00 0.00 0.00 0.00 0.00 0.00 0.00 0.00 0.00 0.00 0.00 0.00 0.00 0.00 0.00 0.00 0.00 0.00 0.00 0.00 0.00 0.00 0.00 0.00 0.00 0.00 0.00 0.00 0.00 0.00 0.00 0.00 0.00 0.00 0.00 0.00 0.00 0.00
0.00 0.00 0.00 0.00 0.00 0.00 0.00 0.00 0.00 0.00 0.00 0.00 0.00 0.00 0.00 0.00 0.00 0.00 0.01 0.00 0.00 0.00 0.00 0.00 0.00 0.00 0.00 0.00 0.00 0.00 0.00 0.00 0.00 0.00 0.00 0.00 0.00 0.00 0.02 0.03 0.01 0.00 0.00 0.00 0.00 0.00 0.00 0.00 0.00
0.00 0.00 0.00 0.00 0.00 0.00 0.00 0.00 0.00 0.00 0.00 0.00 0.00 0.00 0.00 0.00 0.00 0.00 0.02 0.00 0.00 0.00 0.00 0.00 0.00 0.00 0.00 0.00 0.00 0.00 0.00 0.00 0.00 0.00 0.00 0.00 0.00 0.02 0.01 0.00 0.00 0.00 0.00 0.00 0.00 0.00 0.00 0.00 0.00
0.00 0.00 0.00 0.00 0.00 0.00 0.00 0.00 0.00 0.00 0.00 0.00 0.00 0.00 0.00 0.00 0.00 0.00 0.00 0.00 0.00 0.00 0.00 0.00 0.00 0.00 0.00 0.00 0.00 0.00 0.00 0.00 0.00 0.00 0.00 0.00 0.00 0.00 0.00 0.00 0.00 0.00 0.00 0.00 0.00 0.00 0.00 0.00 0.00
MSLP
1008.84 1009.31 1009.54 1009.69 1009.88 1008.56 1006.80 1005.61 1004.62 1004.89 1005.56 1005.95 1006.28 1007.33 1008.51 1008.80 1009.78 1012.12 1012.44 1013.19 1013.85 1014.56 1014.94 1015.16 1015.31 1015.46 1015.74 1015.86 1015.95 1015.97 1016.20 1016.37 1016.48 1016.60 1016.96 1017.18 1017.58 1017.69 1017.74 1017.96 1017.90 1018.02 1018.06 1018.03 1018.03 1018.06 1018.11 1018.30 1018.45
1008.87 1009.47 1009.76 1009.44 1008.90 1007.36 1006.53 1005.44 1005.09 1005.17 1006.00 1006.24 1007.12 1007.51 1008.11 1009.86 1009.99 1011.40 1012.47 1013.39 1013.76 1014.39 1014.93 1015.22 1015.40 1015.63 1015.90 1016.10 1016.14 1016.18 1016.42 1016.56 1016.71 1016.94 1017.22 1017.52 1017.78 1017.74 1017.84 1018.11 1018.18 1018.15 1018.27 1018.29 1018.35 1018.42 1018.45 1018.64 1018.69
1009.06 1009.05 1009.96 1009.55 1008.07 1006.75 1005.63 1005.31 1005.04 1005.27 1005.73 1006.20 1007.07 1007.81 1008.76 1010.34 1010.69 1011.41 1012.60 1013.33 1013.71 1014.48 1015.03 1015.30 1015.55 1015.75 1015.97 1016.12 1016.15 1016.30 1016.58 1016.81 1016.99 1017.15 1017.47 1017.63 1017.82 1017.85 1018.02 1018.18 1018.25 1018.37 1018.54 1018.62 1018.70 1018.80 1018.71 1018.56 1018.57
1009.08 1009.30 1009.66 1009.32 1007.68 1005.90 1005.01 1005.16 1004.80 1005.47 1006.23 1006.62 1007.08 1008.76 1009.60 1010.14 1010.78 1011.71 1012.62 1013.31 1014.02 1014.70 1015.19 1015.38 1015.62 1015.84 1016.04 1016.22 1016.31 1016.43 1016.66 1017.00 1017.16 1017.49 1017.63 1017.77 1018.01 1018.14 1018.28 1018.37 1018.55 1018.74 1018.85 1018.95 1018.99 1018.96 1018.77 1018.66 1018.70
1009.57 1010.45 1010.34 1008.81 1007.02 1005.39 1004.75 1004.54 1004.72 1005.87 1006.75 1007.46 1007.76 1009.54 1009.92 1010.43 1010.99 1011.81 1012.69 1013.50 1014.17 1014.96 1015.27 1015.52 1015.61 1015.87 1016.17 1016.39 1016.53 1016.63 1016.76 1016.99 1017.27 1017.53 1017.76 1017.95 1018.14 1018.35 1018.53 1018.65 1018.80 1018.91 1019.06 1019.03 1018.99 1018.91 1018.84 1018.90 1019.04
1010.22 1011.71 1009.69 1008.73 1006.01 1004.53 1004.29 1004.41 1004.59 1005.68 1006.91 1008.00 1008.71 1009.56 1010.32 1010.59 1011.27 1012.04 1012.75 1013.70 1014.32 1015.02 1015.53 1015.64 1015.83 1015.98 1016.21 1016.44 1016.68 1016.83 1016.98 1017.14 1017.41 1017.70 1017.95 1018.15 1018.35 1018.51 1018.63 1018.74 1018.90 1019.01 1019.07 1019.04 1018.98 1018.94 1018.92 1018.94 1019.04
1010.21 1011.33 1010.70 1008.42 1006.48 1004.49 1004.11 1003.72 1004.51 1005.47 1006.84 1007.74 1008.95 1009.42 1010.63 1010.63 1011.33 1012.02 1012.94 1013.76 1014.38 1014.71 1015.59 1015.91 1016.04 1016.12 1016.34 1016.58 1016.77 1016.92 1017.16 1017.32 1017.57 1017.89 1018.17 1018.33 1018.52 1018.68 1018.85 1018.99 1019.10 1019.15 1019.08 1019.12 1019.10 1019.03 1019.10 1019.06 1019.04
1010.89 1011.70 1010.72 1009.86 1007.15 1005.07 1003.78 1003.05 1004.41 1004.98 1006.82 1007.91 1008.24 1009.64 1010.12 1010.60 1011.20 1011.83 1012.97 1013.72 1014.43 1014.95 1015.47 1015.97 1016.25 1016.42 1016.64 1016.89 1017.03 1017.16 1017.30 1017.51 1017.68 1017.97 1018.28 1018.55 1018.71 1018.87 1019.03 1019.16 1019.19 1019.19 1019.21 1019.37 1019.34 1019.24 1019.29 1019.29 1019.34
1009.96 1011.57 1010.92 1010.82 1007.86 1005.29 1004.09 1004.12 1004.56 1005.45 1006.78 1007.37 1007.77 1008.96 1009.49 1010.41 1011.27 1012.26 1013.14 1013.93 1014.45 1015.02 1015.57 1015.91 1016.19 1016.54 1016.75 1017.04 1017.22 1017.41 1017.50 1017.67 1017.91 1018.14 1018.42 1018.70 1018.96 1019.12 1019.24 1019.31 1019.32 1019.37 1019.45 1019.49 1019.46 1019.39 1019.26 1019.11 1019.09
1008.73 1011.13 1011.23 1009.27 1008.39 1005.87 1004.88 1004.61 1004.82 1005.60 1006.89 1008.15 1008.69 1009.37 1009.75 1010.30 1011.31 1012.13 1012.92 1013.48 1014.29 1014.96 1015.33 1015.57 1015.98 1016.44 1016.69 1016.85 1017.26 1017.52 1017.71 1017.88 1018.15 1018.32 1018.49 1018.80 1019.03 1019.27 1019.40 1019.41 1019.34 1019.41 1019.48 1019.63 1019.60 1019.46 1019.35 1019.10 1018.98
1008.05 1010.39 1010.44 1008.81 1008.17 1007.13 1005.05 1005.06 1005.05 1005.58 1007.12 1008.16 1008.75 1009.38 1009.78 1010.31 1011.25 1011.88 1012.55 1013.12 1013.69 1014.39 1015.01 1015.34 1015.71 1016.06 1016.38 1016.81 1017.51 1017.73 1017.72 1017.89 1018.07 1018.27 1018.40 1018.68 1018.97 1019.25 1019.49 1019.60 1019.42 1019.59 1019.70 1019.76 1019.63 1019.38 1019.33 1019.14 1018.85
1007.38 1009.02 1009.04 1008.66 1006.90 1005.91 1005.30 1005.25 1005.44 1005.83 1007.20 1008.01 1008.87 1009.41 1009.88 1010.34 1010.96 1011.74 1012.29 1012.82 1013.39 1014.10 1014.44 1015.12 1015.30 1015.83 1016.57 1017.45 1018.09 1018.32 1018.03 1017.87 1018.03 1018.35 1018.38 1018.72 1019.02 1019.31 1019.55 1019.62 1019.53 1019.68 1019.64 1019.59 1019.56 1019.39 1019.16 1019.13 1018.78
1006.09 1007.24 1007.52 1006.47 1005.72 1005.26 1005.41 1005.78 1005.79 1006.47 1007.36 1008.30 1008.94 1009.42 1009.94 1010.36 1010.79 1011.35 1011.94 1012.48 1013.06 1013.78 1014.54 1014.89 1015.20 1015.91 1017.40 1017.71 1017.37 1018.50 1018.29 1017.99 1017.79 1017.92 1018.26 1018.56 1018.86 1019.05 1019.33 1019.59 1019.45 1019.48 1019.40 1019.43 1019.24 1019.23 1018.94 1018.65 1018.46
1005.10 1005.79 1006.65 1006.19 1005.77 1005.32 1005.58 1006.22 1006.35 1007.04 1007.46 1008.52 1009.13 1009.45 1009.80 1010.22 1010.54 1011.08 1011.76 1012.39 1013.13 1014.03 1014.65 1015.05 1015.56 1015.99 1016.66 1017.49 1017.82 1018.11 1018.30 1017.75 1017.77 1017.89 1018.17 1018.30 1018.58 1018.75 1019.11 1019.40 1019.26 1019.24 1019.26 1019.15 1019.11 1018.59 1018.74 1018.75 1018.62
1005.22 1006.29 1006.55 1006.69 1006.00 1006.35 1005.70 1007.06 1007.13 1007.18 1007.65 1008.53 1009.29 1009.39 1009.60 1009.98 1010.38 1010.97 1011.57 1012.35 1013.13 1014.03 1014.63 1015.10 1015.51 1015.65 1016.13 1016.66 1016.78 1017.38 1018.19 1017.65 1017.75 1018.06 1018.06 1018.17 1018.46 1018.62 1018.85 1019.08 1019.08 1019.07 1018.91 1018.75 1018.73 1018.87 1019.03 1019.04 1018.63
1005.19 1006.61 1007.46 1007.92 1006.77 1006.69 1005.93 1007.81 1007.86 1007.66 1007.84 1008.54 1009.16 1009.27 1009.41 1009.84 1010.33 1010.74 1011.45 1012.11 1012.84 1013.75 1014.48 1015.00 1015.32 1015.80 1016.21 1016.71 1016.86 1017.19 1017.44 1017.41 1017.64 1017.85 1017.85 1017.97 1018.26 1018.36 1018.61 1018.80 1019.04 1018.77 1018.71 1018.77 1018.85 1019.12 1019.06 1019.07 1018.90
1005.00 1005.80 1007.06 1008.15 1006.64 1006.58 1006.26 1007.56 1007.48 1007.19 1007.64 1008.28 1008.61 1008.90 1009.19 1009.62 1010.16 1010.62 1011.24 1011.99 1012.68 1013.48 1014.28 1014.89 1015.36 1015.70 1016.01 1016.22 1016.40 1016.84 1017.02 1017.38 1017.42 1017.60 1017.84 1017.95 1018.02 1018.26 1018.47 1018.66 1018.76 1018.68 1019.00 1019.12 1019.30 1019.28 1019.29 1019.17 1018.98
1004.43 1005.29 1006.23 1006.38 1006.16 1006.75 1006.30 1006.63 1006.87 1006.89 1007.33 1008.09 1008.43 1008.50 1008.92 1009.40 1009.97 1010.40 1011.04 1011.89 1012.65 1013.38 1014.04 1014.69 1015.36 1015.71 1016.05 1016.10 1016.38 1016.66 1016.97 1017.22 1017.52 1017.51 1017.73 1017.90 1018.16 1018.31 1018.38 1018.44 1018.59 1018.74 1019.11 1019.27 1019.27 1019.11 1018.85 1019.05 1019.03
1003.82 1003.92 1004.66 1004.93 1005.18 1005.36 1005.06 1005.96 1006.09 1006.28 1007.07 1007.68 1007.99 1008.10 1008.51 1009.06 1009.66 1010.22 1010.80 1011.70 1012.58 1013.32 1013.93 1014.58 1015.08 1015.55 1015.94 1016.17 1016.44 1016.64 1017.06 1017.02 1017.49 1017.45 1017.51 1017.78 1018.06 1018.14 1018.21 1018.41 1018.62 1018.52 1018.94 1019.04 1018.76 1018.91 1019.19 1019.27 1018.93
1003.42 1003.36 1003.28 1003.24 1003.49 1004.71 1004.78 1005.48 1005.70 1005.66 1005.97 1006.76 1007.37 1007.42 1007.83 1008.46 1009.25 1009.92 1010.70 1011.53 1012.27 1013.13 1013.72 1014.40 1014.70 1015.32 1015.64 1015.82 1016.03 1016.44 1016.44 1016.64 1016.75 1017.18 1017.44 1017.53 1017.78 1017.99 1018.08 1018.24 1018.71 1018.45 1018.85 1018.94 1018.77 1018.97 1019.47 1019.41 1019.01
1002.83 1002.85 1002.58 1002.98 1003.68 1003.43 1004.00 1004.88 1005.25 1005.04 1005.13 1006.02 1006.50 1006.62 1006.98 1007.62 1008.59 1009.46 1010.36 1011.28 1012.11 1012.80 1013.41 1014.22 1014.57 1015.08 1015.34 1015.67 1015.77 1016.18 1016.56 1016.82 1017.16 1017.39 1017.48 1017.52 1017.59 1017.75 1017.92 1018.15 1018.31 1018.36 1018.57 1018.86 1018.86 1018.94 1019.32 1019.60 1019.17
1002.68 1001.92 1001.93 1002.83 1004.07 1004.65 1002.88 1003.85 1004.06 1004.03 1004.24 1004.88 1005.52 1005.76 1006.18 1006.77 1007.72 1008.66 1009.70 1010.78 1011.61 1012.32 1012.98 1013.87 1014.40 1014.86 1015.09 1015.57 1015.87 1016.14 1016.35 1016.90 1017.09 1016.99 1017.15 1017.28 1017.44 1017.65 1017.75 1017.88 1018.06 1018.33 1018.41 1018.70 1018.73 1018.90 1019.19 1019.35 1019.58
1002.34 1001.66 1001.87 1002.74 1003.17 1003.93 1002.81 1002.87 1001.79 1002.56 1003.25 1003.87 1004.37 1004.96 1005.48 1005.95 1006.91 1007.85 1008.73 1009.86 1010.91 1011.74 1012.50 1013.40 1014.07 1014.65 1014.86 1015.25 1015.59 1015.77 1016.19 1016.34 1016.38 1016.79 1017.08 1017.17 1017.18 1017.33 1017.60 1017.70 1017.96 1018.17 1018.35 1018.69 1018.75 1018.80 1019.14 1019.30 1019.69
1002.21 1001.67 1001.80 1002.06 1003.12 1003.81 1002.90 1002.55 1000.79 1001.37 1001.32 1002.73 1003.44 1003.83 1004.49 1005.15 1006.02 1006.93 1007.82 1008.97 1010.16 1011.20 1012.03 1012.91 1013.71 1014.23 1014.63 1015.04 1015.30 1015.47 1015.76 1016.13 1016.50 1016.81 1017.13 1017.11 1017.15 1017.27 1017.32 1017.44 1017.70 1017.93 1018.22 1018.54 1018.73 1018.85 1019.05 1019.34 1019.52
1002.17 1002.38 1002.43 1002.80 1002.88 1002.81 1002.36 1001.80 999.98 999.21 999.48 1000.66 1001.65 1002.11 1003.14 1003.93 1004.92 1006.12 1007.14 1008.18 1009.18 1010.26 1011.21 1012.25 1013.21 1013.85 1014.18 1014.61 1014.86 1015.04 1015.35 1015.88 1016.07 1016.24 1016.58 1016.85 1017.03 1016.99 1016.94 1017.09 1017.48 1017.82 1017.96 1018.24 1018.37 1018.78 1019.02 1019.20 1019.39
1002.15 1002.45 1002.51 1002.83 1002.95 1002.45 1001.59 1000.33 998.49 997.75 997.55 998.60 999.81 1000.68 1001.75 1002.96 1003.75 1004.85 1005.88 1007.03 1008.08 1009.21 1010.39 1011.41 1012.44 1013.25 1013.77 1014.22 1014.41 1014.50 1014.89 1015.26 1015.63 1016.01 1015.92 1016.16 1016.45 1016.57 1016.51 1016.70 1016.91 1017.20 1017.44 1017.88 1018.23 1018.68 1018.76 1018.85 1019.04
1001.90 1001.89 1001.77 1002.21 1002.43 1002.23 1000.87 999.31 997.78 997.38 997.37 998.01 999.02 1000.19 1001.13 1001.97 1002.71 1003.84 1004.94 1005.93 1007.03 1008.24 1009.31 1010.52 1011.56 1012.40 1013.09 1013.68 1014.11 1014.42 1014.63 1014.97 1015.32 1015.55 1015.71 1015.73 1016.05 1016.15 1016.27 1016.35 1016.81 1016.94 1017.17 1017.40 1017.78 1018.32 1018.60 1018.81 1018.88
1001.91 1001.37 1001.67 1001.46 1002.05 1001.90 1000.82 999.72 998.78 997.95 997.07 997.14 997.78 999.23 1000.12 1001.17 1002.02 1002.83 1003.78 1004.96 1006.04 1007.03 1008.27 1009.54 1010.69 1011.51 1012.24 1012.97 1013.58 1014.02 1014.38 1014.71 1015.01 1015.30 1015.51 1015.49 1015.42 1015.65 1015.89 1016.40 1016.83 1017.02 1017.01 1017.02 1017.49 1017.82 1018.00 1018.25 1018.34
1001.98 1001.12 1001.20 1001.36 1001.38 1001.32 1000.87 999.61 998.02 997.77 997.21 996.96 997.45 998.41 999.25 1000.25 1000.88 1001.93 1003.01 1004.12 1005.15 1006.13 1007.32 1008.51 1009.73 1010.75 1011.50 1012.19 1012.97 1013.55 1014.04 1014.36 1014.66 1014.86 1014.91 1014.99 1015.33 1015.58 1015.87 1016.09 1016.48 1016.78 1016.91 1017.03 1017.21 1017.38 1017.51 1017.80 1017.92
1002.24 1001.49 1000.91 1000.98 1001.44 1001.15 1000.57 998.63 997.37 998.23 998.42 997.50 998.14 997.98 998.93 999.32 999.91 1000.96 1001.81 1003.05 1004.32 1005.29 1006.23 1007.40 1008.61 1009.54 1010.43 1011.25 1012.07 1012.76 1013.28 1013.76 1014.20 1014.49 1014.57 1014.74 1014.99 1015.27 1015.56 1015.84 1016.16 1016.36 1016.53 1016.75 1016.93 1017.10 1017.17 1017.34 1017.53
Thickness
5821 5816 5812 5802 5775 5775 5779 5789 5815 5800 5794 5806 5809 5791 5777 5780 5767 5736 5772 5770 5765 5759 5756 5755 5756 5755 5754 5755 5757 5758 5757 5757 5757 5756 5754 5751 5748 5749 5751 5751 5754 5753 5755 5757 5758 5758 5759 5757 5756
5819 5814 5805 5791 5773 5769 5774 5809 5796 5803 5805 5810 5802 5797 5787 5765 5785 5774 5770 5772 5767 5761 5758 5757 5757 5757 5757 5757 5758 5760 5760 5759 5759 5757 5755 5751 5749 5751 5754 5754 5756 5757 5757 5757 5758 5757 5757 5757 5758
5821 5819 5791 5778 5779 5774 5784 5807 5809 5813 5816 5809 5800 5803 5789 5766 5783 5780 5778 5773 5769 5764 5761 5760 5759 5759 5759 5760 5762 5763 5762 5761 5759 5758 5755 5754 5754 5755 5757 5757 5758 5758 5757 5756 5756 5756 5758 5763 5766
5814 5805 5799 5777 5778 5806 5813 5808 5819 5815 5810 5809 5805 5778 5790 5794 5785 5785 5783 5776 5770 5765 5762 5762 5761 5761 5761 5762 5764 5765 5764 5762 5761 5758 5757 5757 5757 5757 5757 5758 5758 5757 5756 5757 5758 5759 5764 5768 5770
5808 5781 5772 5779 5780 5818 5822 5828 5828 5805 5802 5798 5800 5773 5778 5792 5795 5789 5783 5778 5771 5766 5765 5763 5764 5764 5763 5763 5763 5764 5765 5765 5763 5762 5760 5760 5759 5759 5758 5759 5758 5759 5759 5760 5762 5765 5768 5770 5771
5786 5777 5757 5765 5808 5828 5829 5832 5829 5814 5807 5798 5788 5779 5778 5799 5791 5790 5786 5778 5772 5768 5765 5765 5764 5765 5765 5765 5764 5764 5764 5765 5764 5764 5762 5762 5761 5761 5761 5761 5761 5762 5763 5764 5767 5769 5772 5773 5773
5785 5776 5768 5794 5808 5820 5826 5842 5826 5816 5807 5799 5799 5776 5781 5792 5796 5794 5788 5781 5776 5772 5767 5765 5765 5766 5765 5765 5766 5766 5765 5766 5766 5766 5764 5764 5763 5763 5762 5762 5763 5764 5767 5769 5771 5773 5774 5775 5777
5785 5772 5770 5772 5795 5811 5839 5844 5835 5827 5808 5818 5814 5777 5777 5795 5799 5797 5789 5782 5777 5774 5770 5767 5767 5766 5766 5765 5764 5765 5766 5767 5768 5769 5767 5765 5764 5764 5764 5765 5766 5769 5771 5771 5774 5776 5776 5778 5777
5804 5768 5754 5763 5795 5824 5844 5828 5840 5839 5817 5819 5820 5805 5806 5809 5802 5792 5784 5779 5776 5775 5772 5770 5769 5768 5768 5767 5766 5765 5766 5767 5768 5769 5768 5766 5766 5765 5765 5766 5769 5771 5773 5775 5776 5778 5780 5782 5783
5795 5763 5769 5799 5798 5827 5836 5834 5832 5824 5813 5804 5807 5812 5812 5810 5801 5791 5783 5779 5776 5774 5775 5776 5772 5769 5769 5769 5768 5768 5768 5769 5768 5769 5771 5770 5768 5767 5767 5770 5773 5775 5777 5777 5778 5780 5781 5784 5787
5790 5768 5764 5795 5802 5811 5839 5835 5842 5827 5806 5808 5802 5806 5810 5809 5802 5795 5790 5787 5784 5782 5780 5779 5775 5773 5772 5771 5769 5768 5771 5772 5772 5772 5774 5774 5772 5772 5772 5774 5777 5779 5779 5780 5781 5783 5785 5788 5790
5802 5802 5789 5797 5817 5834 5832 5838 5826 5829 5819 5825 5819 5818 5814 5809 5804 5799 5796 5794 5790 5787 5786 5781 5780 5779 5775 5767 5763 5765 5771 5776 5777 5776 5778 5779 5777 5777 5778 5779 5782 5782 5784 5785 5787 5788 5791 5792 5795
5818 5821 5821 5832 5841 5843 5843 5827 5826 5824 5829 5827 5825 5821 5814 5812 5810 5810 5805 5804 5799 5792 5788 5787 5787 5786 5772 5770 5770 5765 5773 5778 5782 5782 5783 5784 5784 5785 5784 5783 5785 5787 5788 5789 5792 5791 5795 5799 5799
5835 5834 5827 5832 5840 5844 5831 5826 5828 5825 5834 5820 5818 5817 5818 5816 5816 5816 5809 5805 5802 5797 5791 5791 5787 5789 5784 5774 5774 5774 5777 5782 5786 5787 5788 5790 5791 5792 5790 5788 5790 5792 5792 5793 5796 5799 5799 5800 5801
5832 5806 5817 5818 5832 5820 5838 5805 5813 5830 5830 5818 5812 5818 5820 5821 5821 5816 5815 5809 5807 5802 5799 5794 5791 5793 5793 5791 5787 5787 5781 5786 5789 5790 5792 5794 5795 5795 5794 5793 5794 5795 5798 5798 5799 5799 5800 5802 5804
5819 5803 5778 5799 5813 5824 5832 5779 5811 5827 5824 5813 5811 5817 5820 5820 5821 5823 5820 5817 5813 5808 5804 5802 5799 5795 5794 5792 5792 5789 5788 5792 5792 5793 5796 5798 5799 5800 5800 5800 5799 5801 5801 5801 5801 5801 5803 5806 5807
5811 5786 5785 5771 5806 5815 5823 5792 5817 5834 5826 5815 5815 5819 5820 5819 5821 5823 5825 5822 5817 5813 5808 5806 5804 5801 5799 5798 5798 5796 5796 5797 5798 5798 5799 5801 5802 5802 5803 5805 5804 5804 5802 5801 5801 5804 5806 5808 5809
5790 5791 5794 5794 5815 5808 5813 5806 5819 5832 5827 5815 5817 5821 5820 5819 5819 5825 5825 5824 5820 5816 5813 5809 5807 5806 5805 5805 5804 5803 5802 5801 5800 5802 5802 5803 5803 5804 5805 5806 5807 5806 5804 5803 5805 5806 5812 5812 5812
5817 5816 5797 5812 5821 5814 5813 5815 5816 5829 5824 5816 5818 5821 5822 5820 5824 5827 5827 5825 5820 5817 5813 5811 5809 5808 5807 5805 5804 5804 5803 5804 5804 5805 5806 5807 5806 5807 5807 5809 5808 5808 5807 5807 5812 5812 5809 5810 5815
5810 5808 5810 5827 5839 5818 5813 5808 5817 5829 5830 5824 5821 5824 5826 5824 5823 5824 5823 5823 5820 5816 5815 5812 5813 5811 5811 5811 5811 5810 5811 5813 5812 5810 5810 5811 5810 5809 5810 5810 5808 5810 5808 5809 5812 5812 5807 5810 5816
5803 5799 5812 5813 5822 5834 5820 5801 5811 5832 5841 5832 5828 5834 5835 5831 5824 5824 5822 5821 5820 5817 5816 5813 5814 5812 5814 5814 5815 5814 5813 5812 5810 5810 5811 5812 5812 5811 5811 5810 5810 5811 5810 5808 5811 5812 5809 5805 5815
5780 5825 5831 5808 5793 5763 5831 5774 5803 5821 5830 5831 5829 5833 5835 5836 5834 5830 5825 5821 5820 5820 5821 5816 5815 5814 5816 5815 5813 5812 5809 5806 5809 5813 5814 5814 5813 5812 5811 5812 5811 5811 5811 5810 5811 5812 5811 5811 5807
5796 5827 5822 5817 5793 5785 5807 5789 5817 5828 5820 5825 5832 5834 5837 5840 5838 5832 5831 5827 5824 5824 5821 5817 5816 5814 5816 5816 5815 5815 5811 5814 5817 5814 5813 5814 5814 5812 5811 5810 5811 5811 5811 5811 5811 5812 5811 5812 5809
5815 5816 5814 5815 5787 5755 5797 5795 5810 5816 5829 5829 5837 5841 5840 5841 5841 5839 5838 5834 5828 5826 5823 5819 5814 5813 5815 5815 5815 5816 5814 5813 5812 5811 5810 5811 5812 5813 5812 5811 5812 5812 5811 5811 5812 5813 5813 5811 5811
5794 5781 5754 5750 5749 5746 5805 5793 5821 5845 5854 5847 5844 5851 5849 5849 5845 5839 5834 5832 5831 5826 5824 5820 5814 5811 5814 5814 5815 5817 5816 5815 5814 5814 5812 5810 5810 5812 5814 5815 5814 5814 5813 5812 5812 5811 5811 5811 5810
5772 5774 5753 5718 5735 5758 5807 5785 5827 5867 5879 5866 5860 5864 5861 5853 5849 5849 5843 5838 5835 5832 5827 5823 5816 5812 5813 5813 5814 5817 5818 5817 5817 5814 5817 5815 5814 5816 5816 5816 5817 5817 5816 5814 5813 5812 5812 5813 5812
5771 5756 5792 5769 5779 5770 5796 5823 5854 5865 5864 5864 5859 5853 5853 5853 5853 5849 5846 5843 5839 5836 5832 5826 5820 5816 5815 5812 5811 5813 5815 5815 5814 5815 5816 5818 5819 5818 5818 5817 5817 5817 5817 5816 5815 5813 5812 5811 5811
5768 5795 5758 5773 5735 5733 5766 5789 5797 5831 5851 5860 5859 5850 5852 5854 5852 5851 5851 5846 5843 5841 5838 5831 5825 5819 5816 5814 5811 5810 5810 5812 5812 5813 5812 5815 5821 5821 5817 5815 5814 5816 5815 5816 5815 5815 5815 5813 5813
5756 5762 5772 5779 5771 5745 5739 5765 5831 5836 5851 5854 5858 5857 5856 5854 5856 5854 5854 5849 5844 5842 5838 5833 5825 5820 5817 5817 5814 5811 5809 5809 5810 5811 5813 5814 5817 5818 5815 5816 5814 5812 5813 5813 5813 5814 5814 5812 5812
5758 5758 5774 5755 5738 5757 5762 5784 5851 5838 5833 5852 5854 5863 5861 5863 5862 5859 5860 5854 5844 5840 5838 5835 5828 5824 5821 5819 5816 5812 5810 5810 5809 5809 5810 5812 5812 5815 5813 5812 5811 5811 5811 5812 5811 5810 5812 5810 5809